Change the Weather History Date:

Friday, February 28, 2014

  Actual Average Record
Temperature  
Mean Temperature -2 °F -  
Max Temperature 15 °F 35 °F 47 °F (1983)
Min Temperature -20 °F 18 °F -20 °F (2014)
Degree Days  
Heating Degree Days 68    
Moisture  
Dew Point -7 °F    
Average Humidity 66    
Maximum Humidity 84    
Minimum Humidity 42    
Precipitation  
Precipitation 0.02 in - - ()
Sea Level Pressure  
Sea Level Pressure 30.06 in    
Wind  
Wind Speed 2 mph (SSE)    
Max Wind Speed 14 mph    
Max Gust Speed 18 mph    
Visibility 7 miles    
Events Snow    
Averages and records for this station are not official NWS values.
T = Trace of Precipitation, MM = Missing Value Source: NWS Daily Summary

Daily Weather History Graph

Daily Weather History Graph

Search for Another Location

Airport or City:

Trip Planner

Search our weather history database for the weather conditions in past years. The results will help you decide how hot, cold, wet, or windy it might be!

Date:

Astronomy

Feb. 28, 2014 Rise Set
Actual Time 6:34 AM CST 5:42 PM CST
Civil Twilight 6:05 AM CST 6:12 PM CST
Nautical Twilight 5:32 AM CST 6:45 PM CST
Astronomical Twilight 4:58 AM CST 7:19 PM CST
Moon 5:50 AM CST (2/28) 5:20 PM CST (2/28)
Length of Visible Light 12h 06m
Length of Day
11h 07m
Waning Crescent, 1% of the Moon is Illuminated
Feb 28
Waning Crescent
Mar 1
New
Mar 8
First Quarter
Mar 16
Full
Mar 23
Last Quarter

Hourly Weather History & Observations

Time (CST) Temp. Windchill Dew Point Humidity Pressure Visibility Wind Dir Wind Speed Gust Speed Precip Events Conditions
12:15 AM -13.9 °F - -24.3 °F 60% 30.16 in 10.0 mi Calm Calm - N/A   Clear
12:35 AM -14.4 °F - -24.3 °F 61% 30.16 in 10.0 mi Calm Calm - N/A   Clear
12:55 AM -15.3 °F - -23.8 °F 66% 30.16 in 10.0 mi Calm Calm - N/A   Clear
1:15 AM -17.3 °F - -26.1 °F 64% 30.15 in 10.0 mi Calm Calm - N/A   Clear
1:35 AM -17.1 °F - -26.5 °F 62% 30.16 in 10.0 mi Calm Calm - N/A   Clear
1:55 AM -16.4 °F - -25.8 °F 63% 30.16 in 10.0 mi Calm Calm - N/A   Clear
2:15 AM -17.7 °F - -26.5 °F 64% 30.15 in 10.0 mi Calm Calm - N/A   Clear
2:35 AM -18.6 °F - -26.7 °F 66% 30.15 in 10.0 mi Calm Calm - N/A   Clear
2:55 AM -17.7 °F - -25.8 °F 67% 30.16 in 10.0 mi Calm Calm - N/A   Clear
3:15 AM -18.4 °F - -26.5 °F 66% 30.15 in 10.0 mi Calm Calm - N/A   Clear
3:35 AM -18.4 °F - -26.5 °F 66% 30.15 in 10.0 mi Calm Calm - N/A   Clear
3:55 AM -18.9 °F - -26.7 °F 68% 30.14 in 10.0 mi Calm Calm - N/A   Clear
4:15 AM -19.5 °F - -27.6 °F 66% 30.13 in 10.0 mi Calm Calm - N/A   Clear
4:35 AM -19.5 °F - -27.6 °F 66% 30.13 in 10.0 mi Calm Calm - N/A   Clear
4:55 AM -19.8 °F - -27.9 °F 66% 30.13 in 10.0 mi Calm Calm - N/A   Clear
5:15 AM -19.7 °F - -27.9 °F 66% 30.13 in 10.0 mi Calm Calm - N/A   Clear
5:35 AM -20.4 °F - -28.5 °F 66% 30.13 in 10.0 mi Calm Calm - N/A   Mostly Cloudy
5:55 AM -18.4 °F - -26.5 °F 66% 30.13 in 10.0 mi Calm Calm - N/A   Overcast
6:15 AM -16.8 °F - -25.6 °F 64% 30.13 in 10.0 mi Calm Calm - N/A   Overcast
6:35 AM -15.7 °F - -24.3 °F 65% 30.13 in 10.0 mi Calm Calm - N/A   Overcast
6:55 AM -15.2 °F - -24.5 °F 63% 30.12 in 10.0 mi Calm Calm - N/A   Mostly Cloudy
7:15 AM -15.0 °F - -24.0 °F 64% 30.13 in 10.0 mi Calm Calm - N/A   Clear
7:35 AM -13.7 °F - -22.5 °F 65% 30.13 in 10.0 mi Calm Calm - N/A   Clear
7:55 AM -11.7 °F - -21.3 °F 63% 30.12 in 10.0 mi Calm Calm - N/A   Clear
8:15 AM -8.7 °F - -19.7 °F 59% 30.13 in 10.0 mi Calm Calm - N/A   Clear
8:35 AM -6.0 °F - -19.3 °F 53% 30.12 in 10.0 mi Calm Calm - N/A   Mostly Cloudy
8:55 AM -1.5 °F -11.6 °F -16.2 °F 50% 30.11 in 10.0 mi East 4.6 mph - N/A   Mostly Cloudy
9:15 AM 0.1 °F -9.7 °F -15.2 °F 49% 30.11 in 10.0 mi ESE 4.6 mph - N/A   Overcast
9:35 AM 1.2 °F -8.5 °F -15.0 °F 47% 30.10 in 10.0 mi ESE 4.6 mph - N/A   Overcast
9:55 AM 3.2 °F - -13.7 °F 45% 30.10 in 10.0 mi Calm Calm - N/A   Overcast
10:15 AM 5.7 °F -6.1 °F -13.0 °F 42% 30.09 in 10.0 mi SSE 6.9 mph - N/A   Overcast
10:35 AM 7.2 °F -5.4 °F -11.0 °F 43% 30.09 in 10.0 mi South 8.1 mph - N/A   Overcast
10:55 AM 8.4 °F -3.9 °F -8.7 °F 46% 30.08 in 10.0 mi SSE 8.1 mph - N/A   Overcast
11:15 AM 10.2 °F -5.7 °F -6.2 °F 48% 30.06 in 10.0 mi SSE 13.8 mph - N/A   Overcast
11:35 AM 11.5 °F -1.1 °F -4.4 °F 49% 30.05 in 10.0 mi SSE 9.2 mph - N/A   Overcast
11:55 AM 11.8 °F -1.5 °F -4.4 °F 48% 30.05 in 10.0 mi South 10.4 mph - N/A   Overcast
12:15 PM 12.7 °F -1.1 °F -4.2 °F 47% 30.04 in 10.0 mi SSE 11.5 mph - N/A   Overcast
12:35 PM 14.0 °F -0.2 °F -4.0 °F 45% 30.03 in 10.0 mi SSE 12.7 mph - N/A   Overcast
12:55 PM 14.7 °F 2.1 °F -3.6 °F 44% 30.02 in 10.0 mi South 10.4 mph - N/A   Overcast
1:15 PM 15.3 °F 1.4 °F -2.9 °F 45% 30.00 in 10.0 mi South 12.7 mph - N/A   Overcast
1:35 PM 15.8 °F 2.1 °F -2.0 °F 45% 29.99 in 10.0 mi SSE 12.7 mph - N/A   Overcast
1:55 PM 15.6 °F 3.2 °F -1.3 °F 47% 29.98 in 10.0 mi SSE 10.4 mph - N/A   Overcast
2:15 PM 15.4 °F 3.8 °F -1.3 °F 48% 29.97 in 10.0 mi SE 9.2 mph - N/A   Overcast
2:35 PM 15.1 °F 2.5 °F 1.4 °F 55% 29.97 in 1.5 mi SSE 10.4 mph - N/A Snow Light Snow
2:55 PM 14.4 °F 3.3 °F 5.5 °F 68% 29.97 in 1.0 mi SSE 8.1 mph - N/A Snow Light Snow
3:15 PM 14.2 °F 1.4 °F 6.8 °F 73% 29.94 in 0.8 mi SSE 10.4 mph - N/A Snow Light Snow
3:35 PM 14.0 °F 2.0 °F 7.7 °F 76% 29.94 in 0.8 mi SSE 9.2 mph - N/A Snow Light Snow
3:55 PM 14.5 °F 4.6 °F 7.5 °F 74% 29.96 in 1.8 mi South 6.9 mph - N/A Snow Light Snow
4:15 PM 14.5 °F 7.1 °F 7.7 °F 74% 29.97 in 0.8 mi SSW 4.6 mph - N/A Snow Light Snow
4:35 PM 14.5 °F 7.1 °F 8.6 °F 77% 29.97 in 0.8 mi South 4.6 mph - N/A Snow Light Snow
4:55 PM 14.5 °F 8.8 °F 9.1 °F 79% 29.96 in 1.0 mi South 3.5 mph - N/A Snow Light Snow
5:15 PM 14.2 °F 8.4 °F 9.3 °F 81% 29.96 in 0.8 mi South 3.5 mph - N/A Snow Snow
5:35 PM 14.2 °F - 9.5 °F 82% 29.96 in 0.8 mi Calm Calm - N/A Snow Light Snow
5:55 PM 14.0 °F - 9.5 °F 82% 29.96 in 1.5 mi Calm Calm - N/A Snow Light Snow
6:15 PM 14.0 °F - 9.7 °F 83% 29.97 in 1.2 mi Calm Calm - 0.01 in Snow Light Snow
6:35 PM 14.0 °F - 10.0 °F 84% 29.97 in 1.5 mi Calm Calm - 0.01 in Snow Light Snow
6:55 PM 14.0 °F - 10.0 °F 84% 29.98 in 1.5 mi Calm Calm - 0.01 in Snow Light Snow
7:15 PM 14.4 °F - 10.2 °F 84% 29.98 in 1.8 mi Calm Calm - N/A Snow Light Snow
7:35 PM 14.4 °F - 10.2 °F 84% 29.98 in 2.0 mi Calm Calm - N/A Snow Light Snow
7:55 PM 14.4 °F - 10.4 °F 84% 29.99 in 2.0 mi Calm Calm - 0.01 in Snow Light Snow
8:15 PM 14.4 °F - 10.2 °F 84% 30.00 in 2.0 mi Calm Calm - N/A Snow Light Snow
8:35 PM 14.4 °F - 10.4 °F 84% 30.00 in 2.0 mi Calm Calm - N/A Snow Light Snow
8:55 PM 14.5 °F - 10.4 °F 84% 30.00 in 2.5 mi Calm Calm - N/A Snow Light Snow
9:15 PM 14.4 °F - 10.4 °F 84% 30.00 in 2.5 mi Calm Calm - N/A Snow Light Snow
9:35 PM 14.5 °F - 10.4 °F 84% 30.01 in 4.0 mi Calm Calm - N/A Snow Light Snow
9:55 PM 14.5 °F - 10.4 °F 84% 30.01 in 4.0 mi Calm Calm - N/A Snow Light Snow
10:15 PM 14.7 °F - 10.4 °F 83% 30.01 in 7.0 mi Calm Calm - N/A   Overcast
10:35 PM 14.9 °F - 10.8 °F 84% 30.01 in 7.0 mi Calm Calm - N/A Snow Light Snow
10:55 PM 14.9 °F - 10.4 °F 82% 30.01 in 10.0 mi Calm Calm - N/A   Overcast
11:15 PM 15.4 °F 6.8 °F 10.4 °F 80% 30.01 in 7.0 mi WNW 5.8 mph - N/A Snow Light Snow
11:35 PM 15.8 °F 2.7 °F 9.0 °F 74% 30.02 in 10.0 mi WNW 11.5 mph 16.1 mph N/A   Overcast
11:55 PM 15.4 °F 1.6 °F 7.5 °F 71% 30.03 in 7.0 mi WNW 12.7 mph 18.4 mph N/A   Overcast